EW6288 Weather Reports


Display with metric or nautical units.
time (UTC)temp
F
wind
direction
speed
MPH
gust
MPH
rain 1hr
in
rain 24hr
in
rain mn
in
humidity
%
barometer
mb
20260904060309 81 0 1.0 3.0 0.00 0.00 0.00 91 1012.7
20260904055809 81 0 1.0 4.0 0.00 0.00 0.00 91 1012.6
20260904055309 81 0 1.0 4.0 0.00 0.00 0.00 91 1012.6
20260904054804 81 0 1.0 4.0 0.00 0.00 0.00 91 1012.7
20260904054306 81 0 1.0 3.0 0.00 0.00 0.00 91 1012.7
20260904053804 81 0 1.0 3.0 0.00 0.00 0.00 91 1012.7
20260904053304 81 0 1.0 3.0 0.00 0.00 0.00 91 1012.7
20260904052804 81 0 1.0 4.0 0.00 0.00 0.00 91 1012.6
20260904052306 81 0 1.0 4.0 0.00 0.00 0.00 91 1012.6
20260904052033 81 0 1.0 3.0 0.00 0.00 0.00 91 1012.7
20260904051306 81 0 0.0 3.0 0.00 0.00 0.00 91 1012.7
20260904050804 81 0 1.0 5.0 0.00 0.00 0.00 91 1012.7
20260904050304 81 0 1.0 5.0 0.00 0.00 0.00 91 1012.6
20260904045804 81 0 1.0 5.0 0.00 0.00 0.00 91 1012.6
20260904045307 81 0 1.0 5.0 0.00 0.00 0.00 91 1012.5
20260904044801 81 0 1.0 4.0 0.00 0.00 0.00 91 1012.5
20260904044532 81 0 1.0 4.0 0.00 0.00 0.00 91 1012.5
20260904043800 81 0 1.0 4.0 0.00 0.00 0.00 91 1012.5
20260904043301 81 0 1.0 4.0 0.00 0.00 0.00 91 1012.7
20260904042800 81 0 1.0 4.0 0.00 0.00 0.00 91 1012.7
20260904042300 81 0 1.0 4.0 0.00 0.00 0.00 91 1012.6
20260904041755 80 0 1.0 5.0 0.00 0.00 0.00 91 1012.7
20260904041254 80 0 1.0 5.0 0.00 0.00 0.00 91 1012.7
20260904041024 80 0 1.0 5.0 0.00 0.00 0.00 91 1012.7
20260904040254 80 0 0.0 5.0 0.00 0.00 0.00 91 1012.7
20260904040024 80 0 0.0 3.0 0.00 0.00 0.00 91 1012.7
20260904035254 80 0 0.0 6.0 0.00 0.00 0.00 91 1012.7
20260904034754 81 0 0.0 6.0 0.00 0.00 0.00 91 1012.7
20260904034254 81 0 1.0 6.0 0.00 0.00 0.00 91 1012.7
20260904033754 81 0 1.0 6.0 0.00 0.00 0.00 91 1012.7
20260904033254 81 0 1.0 3.0 0.00 0.00 0.00 91 1012.7
20260904032753 81 0 1.0 3.0 0.00 0.00 0.00 91 1012.7
20260904032255 81 0 1.0 3.0 0.00 0.00 0.00 91 1012.7
20260904031752 81 0 0.0 3.0 0.00 0.00 0.00 91 1012.7
20260904031252 81 0 0.0 0.0 0.00 0.00 0.00 91 1012.7
20260904030751 81 0 0.0 0.0 0.00 0.00 0.00 91 1012.7
20260904030253 81 0 0.0 4.0 0.00 0.00 0.00 91 1012.7
20260904025745 81 0 0.0 4.0 0.00 0.00 0.00 91 1012.7
20260904025245 81 0 0.0 4.0 0.00 0.00 0.00 91 1012.7
20260904024747 81 0 1.0 5.0 0.00 0.00 0.00 91 1012.6
20260904024246 81 0 1.0 5.0 0.00 0.00 0.00 91 1012.5
20260904023745 81 0 1.0 3.0 0.00 0.00 0.00 91 1012.4
20260904023517 81 0 0.0 3.0 0.00 0.00 0.00 91 1012.4
20260904022745 81 0 0.0 3.0 0.00 0.00 0.00 91 1012.3
20260904022246 81 0 1.0 4.0 0.00 0.00 0.00 91 1012.3
20260904022018 81 0 1.0 4.0 0.00 0.00 0.00 90 1012.2
20260904021243 80 0 1.0 4.0 0.00 0.00 0.00 91 1012.2
20260904020741 80 0 1.0 3.0 0.00 0.00 0.00 90 1012.1
20260904020242 80 0 1.0 3.0 0.00 0.00 0.00 90 1012.0
20260904015742 80 0 1.0 3.0 0.00 0.00 0.00 90 1012.1
20260904015241 81 0 0.0 3.0 0.00 0.00 0.00 90 1012.0
20260904014741 81 0 1.0 3.0 0.00 0.00 0.00 90 1012.0
20260904014242 81 0 1.0 3.0 0.00 0.00 0.00 90 1012.0
20260904013741 81 0 1.0 3.0 0.00 0.00 0.00 90 1011.9
20260904013244 81 0 0.0 2.0 0.00 0.00 0.00 90 1011.9
20260904012738 81 0 0.0 2.0 0.00 0.00 0.00 90 1011.7
20260904012238 80 0 0.0 2.0 0.00 0.00 0.00 90 1011.7
20260904011739 80 0 0.0 1.0 0.00 0.00 0.00 90 1011.8
20260904011238 80 0 0.0 1.0 0.00 0.00 0.00 90 1011.7
20260904010737 80 0 0.0 1.0 0.00 0.00 0.00 90 1011.7
20260904010236 80 0 0.0 1.0 0.00 0.00 0.00 90 1011.7
20260904005737 80 0 0.0 2.0 0.00 0.00 0.00 90 1011.8
20260904005508 80 0 0.0 3.0 0.00 0.00 0.00 90 1011.7
20260904004737 80 0 1.0 4.0 0.00 0.00 0.00 90 1011.7
20260904004236 80 0 0.0 4.0 0.00 0.00 0.00 90 1011.7
20260904004231 80 0 1.0 4.0 0.00 0.00 0.00 90 1011.7
20260904003230 80 0 0.0 1.0 0.00 0.00 0.00 90 1011.7
20260904002729 80 0 0.0 1.0 0.00 0.00 0.00 90 1011.8
20260904002232 81 0 0.0 1.0 0.00 0.00 0.00 90 1011.7
20260904001725 81 0 0.0 0.0 0.00 0.00 0.00 90 1011.7
20260904001227 81 0 0.0 0.0 0.00 0.00 0.00 90 1011.8
20260904000725 80 0 0.0 0.0 0.00 0.00 0.00 90 1011.8
20260904000218 80 0 0.0 0.0 0.00 0.00 0.00 90 1011.9
20260903235716 80 0 0.0 0.0 0.00 0.00 0.00 90 1011.9
20260903235219 80 0 0.0 0.0 0.00 0.00 0.00 90 1011.9
20260903234715 80 0 0.0 1.0 0.00 0.00 0.00 90 1011.9
20260903234215 80 0 0.0 1.0 0.00 0.00 0.00 90 1011.9
20260903233712 80 0 0.0 0.0 0.00 0.00 0.00 90 1011.9
20260903233214 80 0 0.0 0.0 0.00 0.00 0.00 90 1012.0
20260903232713 80 0 0.0 0.0 0.00 0.00 0.00 90 1011.9
20260903232211 80 0 0.0 0.0 0.00 0.00 0.00 90 1011.9
20260903231943 80 0 0.0 0.0 0.00 0.00 0.00 90 1012.0
20260903231209 80 0 0.0 0.0 0.00 0.00 0.00 90 1012.0
20260903230707 80 0 0.0 0.0 0.00 0.00 0.00 90 1012.0
20260903230205 80 0 0.0 0.0 0.00 0.00 0.00 90 1012.0
20260903225702 80 0 0.0 1.0 0.00 0.00 0.00 90 1012.0
20260903225202 80 0 0.0 1.0 0.00 0.00 0.00 90 1012.0
20260903224658 80 0 0.0 1.0 0.00 0.00 0.00 90 1012.1
20260903224158 80 0 0.0 1.0 0.00 0.00 0.00 90 1012.1
20260903223657 80 0 0.0 1.0 0.00 0.00 0.00 90 1012.0
20260903223157 80 0 0.0 1.0 0.00 0.00 0.00 90 1012.0
20260903223152 80 0 0.0 1.0 0.00 0.00 0.00 90 1012.0
20260903222151 80 0 0.0 1.0 0.00 0.00 0.00 90 1012.1
20260903221648 80 0 0.0 2.0 0.00 0.00 0.00 90 1012.1
20260903221150 80 0 0.0 2.0 0.00 0.00 0.00 90 1012.2
20260903220644 80 0 0.0 0.0 0.00 0.00 0.00 90 1012.2
20260903220143 80 0 0.0 0.0 0.00 0.00 0.00 90 1012.2
20260903215646 80 0 0.0 0.0 0.00 0.00 0.00 90 1012.3
20260903215140 80 0 0.0 0.0 0.00 0.00 0.00 90 1012.4
20260903214641 80 0 0.0 0.0 0.00 0.00 0.00 90 1012.6
20260903214139 80 0 0.0 0.0 0.00 0.00 0.00 90 1012.8
20260903213639 80 0 0.0 0.0 0.00 0.00 0.00 89 1013.0
20260903213409 80 0 0.0 0.0 0.00 0.00 0.00 89 1013.1
20260903212640 80 0 0.0 2.0 0.00 0.00 0.00 90 1013.2
20260903212137 80 0 0.0 2.0 0.00 0.00 0.00 90 1013.3
20260903211635 80 0 0.0 3.0 0.00 0.00 0.00 89 1013.4
20260903211136 80 0 0.0 3.0 0.00 0.00 0.00 89 1013.4
20260903210635 80 0 1.0 3.0 0.00 0.00 0.00 89 1013.3
20260903210134 80 0 1.0 3.0 0.00 0.00 0.00 89 1013.2
20260903205635 80 0 1.0 2.0 0.00 0.00 0.00 90 1013.1
20260903205135 81 0 1.0 2.0 0.00 0.00 0.00 90 1013.2
20260903204634 80 0 1.0 2.0 0.00 0.00 0.00 90 1013.3
20260903204135 80 0 0.0 3.0 0.00 0.00 0.00 89 1013.3
20260903203905 80 0 0.0 3.0 0.00 0.00 0.00 89 1013.3
20260903203132 80 0 1.0 3.0 0.00 0.00 0.00 89 1013.0
20260903202634 80 0 1.0 3.0 0.00 0.00 0.00 89 1012.9
20260903202133 80 0 0.0 2.0 0.00 0.00 0.00 89 1013.0
20260903201633 80 0 1.0 3.0 0.00 0.00 0.00 89 1013.1
20260903201130 80 0 1.0 3.0 0.00 0.00 0.00 89 1013.2
20260903200628 80 0 0.0 3.0 0.00 0.00 0.00 89 1013.2
20260903200130 79 0 0.0 2.0 0.00 0.00 0.00 89 1013.0
20260903195859 79 0 0.0 2.0 0.00 0.00 0.00 89 1012.9
20260903195129 79 0 0.0 2.0 0.00 0.00 0.00 89 1013.0
20260903194859 79 0 0.0 2.0 0.00 0.00 0.00 89 1013.2
20260903194128 79 0 0.0 2.0 0.00 0.00 0.00 89 1013.2
20260903193629 78 0 0.0 2.0 0.00 0.00 0.00 89 1013.3
20260903193401 78 0 0.0 2.0 0.00 0.00 0.00 88 1013.3
20260903192625 78 0 0.0 2.0 0.00 0.00 0.00 88 1013.4
20260903192126 78 0 0.0 2.0 0.00 0.00 0.00 88 1013.5
20260903191624 78 0 1.0 2.0 0.00 0.00 0.00 88 1013.3
20260903191125 78 0 1.0 2.0 0.00 0.00 0.00 88 1013.3
20260903190855 78 0 0.0 4.0 0.00 0.00 0.00 88 1013.2
20260903190354 78 0 1.0 4.0 0.00 0.00 0.00 88 1013.2
20260903185626 78 0 1.0 4.0 0.00 0.00 0.00 88 1013.3
20260903185356 78 0 1.0 4.0 0.00 0.00 0.00 88 1013.4
20260903184625 78 0 0.0 2.0 0.00 0.00 0.00 88 1013.4
20260903184119 78 0 0.0 2.0 0.00 0.00 0.00 87 1013.4
20260903183621 78 0 0.0 2.0 0.00 0.00 0.00 87 1013.4
20260903183121 78 0 1.0 2.0 0.00 0.00 0.00 87 1013.7
20260903182851 78 0 1.0 2.0 0.00 0.00 0.00 87 1013.9
20260903182120 78 0 0.0 2.0 0.00 0.00 0.00 86 1013.8
20260903181621 78 0 0.0 3.0 0.00 0.00 0.00 86 1013.7
20260903181123 78 0 0.0 3.0 0.00 0.00 0.00 85 1014.0
20260903180622 78 0 1.0 5.0 0.00 0.00 0.00 85 1013.9
20260903180121 78 0 1.0 5.0 0.00 0.00 0.00 85 1013.8
20260903175622 79 0 2.0 5.0 0.00 0.00 0.00 85 1014.0
20260903175117 80 0 2.0 9.0 0.00 0.00 0.00 85 1014.0
20260903174619 80 0 2.0 9.0 0.00 0.00 0.00 85 1014.6
20260903174121 81 0 2.0 5.0 0.00 0.00 0.00 84 1014.9
20260903173618 81 0 2.0 4.0 0.00 0.00 0.00 84 1014.7
20260903173119 81 0 2.0 4.0 0.00 0.00 0.00 83 1014.5
20260903172619 82 0 2.0 4.0 0.00 0.00 0.00 83 1014.2
20260903172120 82 0 1.0 3.0 0.00 0.00 0.00 82 1013.9
20260903171618 83 0 1.0 10.0 0.00 0.00 0.00 81 1013.8
20260903171118 84 0 2.0 10.0 0.00 0.00 0.00 81 1013.9
20260903170618 85 0 3.0 10.0 0.00 0.00 0.00 82 1014.5
20260903170123 87 261 1.0 7.0 0.00 0.00 0.00 82 1014.2
20260903170119 86 0 3.0 10.0 0.00 0.00 0.00 83 1014.4
20260903165118 87 156 0.0 3.0 0.00 0.00 0.00 81 1013.9
20260903164618 87 156 1.0 5.0 0.00 0.00 0.00 81 1013.9
20260903164119 88 156 2.0 5.0 0.00 0.00 0.00 80 1014.0
20260903163621 88 157 2.0 5.0 0.00 0.00 0.00 79 1014.0
20260903163115 88 148 1.0 5.0 0.00 0.00 0.00 80 1013.9
20260903162615 88 165 1.0 4.0 0.00 0.00 0.00 81 1013.9
20260903162115 87 165 1.0 4.0 0.00 0.00 0.00 82 1013.9
20260903161617 87 176 1.0 2.0 0.00 0.00 0.00 83 1014.0
20260903161114 86 136 1.0 3.0 0.00 0.00 0.00 84 1014.0
20260903160614 85 135 1.0 5.0 0.00 0.00 0.00 86 1014.1
20260903160115 84 161 1.0 5.0 0.00 0.00 0.00 87 1014.1
20260903155845 83 140 1.0 4.0 0.00 0.00 0.00 88 1014.0
20260903155115 84 129 1.0 3.0 0.00 0.00 0.00 88 1013.9
20260903154611 83 150 1.0 3.0 0.00 0.00 0.00 88 1013.9
20260903154344 83 200 1.0 3.0 0.00 0.00 0.00 88 1013.9
20260903153842 83 198 0.0 3.0 0.00 0.00 0.00 88 1013.8
20260903153114 83 197 0.0 2.0 0.00 0.00 0.00 88 1014.0
20260903152610 83 0 0.0 2.0 0.00 0.00 0.00 88 1014.0
20260903152110 83 0 0.0 2.0 0.00 0.00 0.00 88 1014.0
20260903151612 83 0 0.0 2.0 0.00 0.00 0.00 88 1014.0
20260903151112 83 0 0.0 2.0 0.00 0.00 0.00 88 1014.0
20260903150609 83 0 0.0 2.0 0.00 0.00 0.00 88 1014.1
20260903150108 83 0 0.0 2.0 0.00 0.00 0.00 88 1014.1
20260903145606 83 0 0.0 2.0 0.00 0.00 0.00 87 1014.1
20260903145103 83 0 0.0 1.0 0.00 0.00 0.00 87 1014.1
20260903144602 83 0 0.0 1.0 0.00 0.00 0.00 87 1014.3
20260903144103 83 0 0.0 1.0 0.00 0.00 0.00 87 1014.4
20260903143557 83 0 0.0 1.0 0.00 0.00 0.00 87 1014.3
20260903143326 83 0 0.0 1.0 0.00 0.00 0.00 87 1014.3
20260903142556 83 0 0.0 1.0 0.00 0.00 0.00 87 1014.3
20260903142056 83 0 0.0 0.0 0.00 0.00 0.00 87 1014.3
20260903141550 83 0 0.0 0.0 0.00 0.00 0.00 87 1014.3
20260903141049 83 0 0.0 0.0 0.00 0.00 0.00 87 1014.2
20260903140549 83 0 0.0 1.0 0.00 0.00 0.00 86 1014.2
20260903140320 83 0 0.0 1.0 0.00 0.00 0.00 86 1014.2
20260903135548 83 0 0.0 1.0 0.00 0.00 0.00 86 1014.2
20260903135050 83 0 0.0 1.0 0.00 0.00 0.00 86 1014.3
20260903134546 83 0 0.0 1.0 0.00 0.00 0.00 86 1014.2
20260903134047 83 0 0.0 1.0 0.00 0.00 0.00 86 1014.3
20260903133545 83 0 0.0 1.0 0.00 0.00 0.00 86 1014.3
20260903133042 83 0 0.0 1.0 0.00 0.00 0.00 86 1014.2
20260903132543 83 0 0.0 1.0 0.00 0.00 0.00 86 1014.2
20260903132043 83 0 0.0 1.0 0.00 0.00 0.00 86 1014.1
20260903131540 83 0 0.0 1.0 0.00 0.00 0.00 85 1014.1
20260903131038 83 0 0.0 2.0 0.00 0.00 0.00 85 1014.0
20260903130809 83 0 0.0 2.0 0.00 0.00 0.00 85 1014.0
20260903130036 83 0 0.0 2.0 0.00 0.00 0.00 85 1014.0
20260903125530 83 0 0.0 2.0 0.00 0.00 0.00 85 1014.0
20260903125030 83 0 0.0 1.0 0.00 0.00 0.00 85 1013.8
20260903124801 83 0 0.0 2.0 0.00 0.00 0.00 85 1013.6
20260903124031 83 0 0.0 2.0 0.00 0.00 0.00 85 1013.5
20260903123529 83 0 0.0 4.0 0.00 0.00 0.00 85 1013.5
20260903123026 83 0 0.0 4.0 0.00 0.00 0.00 85 1013.4
20260903122525 83 0 1.0 5.0 0.00 0.00 0.00 85 1013.3
20260903122027 83 0 1.0 5.0 0.00 0.00 0.00 85 1013.3
20260903121754 83 0 1.0 3.0 0.00 0.00 0.00 85 1013.2
20260903121026 83 0 1.0 3.0 0.00 0.00 0.00 84 1013.2
20260903120521 83 0 0.0 3.0 0.00 0.00 0.00 84 1013.2
20260903120022 83 0 0.0 3.0 0.00 0.00 0.00 84 1013.2
20260903115523 84 0 0.0 2.0 0.00 0.00 0.00 84 1013.2
20260903115023 84 0 0.0 2.0 0.00 0.00 0.00 84 1013.2
20260903114520 84 0 0.0 2.0 0.00 0.00 0.00 84 1013.1
20260903114020 84 0 0.0 3.0 0.00 0.00 0.00 83 1013.1
20260903113521 84 0 1.0 3.0 0.00 0.00 0.00 83 1013.1
20260903113020 84 0 0.0 3.0 0.00 0.00 0.00 83 1013.2
20260903112518 84 0 0.0 3.0 0.00 0.00 0.00 83 1013.2
20260903112020 84 0 0.0 3.0 0.00 0.00 0.00 83 1013.2
20260903111517 84 0 0.0 3.0 0.00 0.00 0.00 83 1013.2
20260903111020 84 0 0.0 1.0 0.00 0.00 0.00 83 1013.2
20260903110517 84 0 0.0 1.0 0.00 0.00 0.00 83 1013.3
20260903110018 85 0 0.0 1.0 0.00 0.00 0.00 83 1013.3
20260903105517 85 0 0.0 4.0 0.00 0.00 0.00 83 1013.2
20260903105015 85 0 0.0 4.0 0.00 0.00 0.00 83 1013.1
20260903104516 85 0 1.0 4.0 0.00 0.00 0.00 83 1013.1
20260903104016 85 0 2.0 4.0 0.00 0.00 0.00 83 1013.0
20260903103748 85 0 1.0 4.0 0.00 0.00 0.00 83 1013.0
20260903103015 85 0 1.0 5.0 0.00 0.00 0.00 83 1012.9
20260903102517 85 0 1.0 5.0 0.00 0.00 0.00 82 1012.9
20260903102246 85 0 1.0 5.0 0.00 0.00 0.00 82 1012.9
20260903101513 85 0 1.0 5.0 0.00 0.00 0.00 82 1012.9
20260903101015 85 0 1.0 5.0 0.00 0.00 0.00 82 1012.9
20260903100514 85 0 1.0 4.0 0.00 0.00 0.00 82 1012.9
20260903100013 85 0 0.0 4.0 0.00 0.00 0.00 82 1012.9
20260903095514 85 0 0.0 2.0 0.00 0.00 0.00 82 1012.8
20260903095014 85 0 1.0 4.0 0.00 0.00 0.00 82 1012.8
20260903094738 85 0 1.0 4.0 0.00 0.00 0.00 82 1012.8
20260903094005 85 0 1.0 4.0 0.00 0.00 0.00 82 1012.9
20260903093505 85 0 1.0 5.0 0.00 0.00 0.00 82 1012.9
20260903093005 85 0 1.0 5.0 0.00 0.00 0.00 82 1012.9
20260903092502 85 0 1.0 5.0 0.00 0.00 0.00 82 1012.9
20260903092002 85 0 2.0 5.0 0.00 0.00 0.00 82 1012.9
20260903091502 85 0 1.0 4.0 0.00 0.00 0.00 82 1012.9
20260903091008 85 0 1.0 4.0 0.00 0.00 0.00 82 1012.9
20260903090502 85 0 1.0 4.0 0.00 0.00 0.00 82 1012.9
20260903090003 85 0 1.0 3.0 0.00 0.00 0.00 82 1012.9
20260903085502 85 0 1.0 4.0 0.00 0.00 0.00 82 1012.9
20260903084959 85 0 1.0 4.0 0.00 0.00 0.00 82 1012.8
20260903084501 85 0 1.0 4.0 0.00 0.00 0.00 82 1012.8
20260903083957 85 0 2.0 4.0 0.00 0.00 0.00 82 1012.8
20260903083457 85 0 1.0 4.0 0.00 0.00 0.00 82 1012.8
20260903082957 85 0 1.0 8.0 0.00 0.00 0.00 82 1012.7
20260903082728 85 0 1.0 8.0 0.00 0.00 0.00 82 1012.7
20260903081956 85 0 1.0 5.0 0.00 0.00 0.00 82 1012.7
20260903081728 85 0 1.0 4.0 0.00 0.00 0.00 82 1012.7
20260903080959 85 0 1.0 4.0 0.00 0.00 0.00 82 1012.7
20260903080456 85 0 1.0 5.0 0.00 0.00 0.00 82 1012.7
20260903075955 85 0 1.0 5.0 0.00 0.00 0.00 82 1012.8
20260903075453 85 0 2.0 5.0 0.00 0.00 0.00 82 1012.7
20260903074955 85 0 1.0 5.0 0.00 0.00 0.00 82 1012.7
20260903074452 85 0 1.0 4.0 0.00 0.00 0.00 82 1012.7
20260903073954 85 0 2.0 6.0 0.00 0.00 0.00 82 1012.7
20260903073453 85 0 2.0 6.0 0.00 0.00 0.00 82 1012.7
20260903072951 85 0 2.0 6.0 0.00 0.00 0.00 82 1012.7
20260903072453 85 0 2.0 6.0 0.00 0.00 0.00 82 1012.8
20260903071953 85 0 2.0 6.0 0.00 0.00 0.00 82 1012.8
20260903071453 85 0 1.0 5.0 0.00 0.00 0.00 82 1012.9
20260903070951 85 0 1.0 3.0 0.00 0.00 0.00 82 1012.9
20260903070453 85 0 1.0 3.0 0.00 0.00 0.00 82 1012.9
20260903065950 85 0 1.0 5.0 0.00 0.00 0.00 82 1013.1
20260903065450 85 0 1.0 5.0 0.00 0.00 0.00 82 1013.1
20260903064948 85 0 2.0 5.0 0.00 0.00 0.00 82 1013.2
20260903064448 85 0 1.0 5.0 0.00 0.00 0.00 82 1013.3
20260903064220 85 0 1.0 4.0 0.00 0.00 0.00 82 1013.3
20260903063447 85 0 1.0 4.0 0.00 0.00 0.00 82 1013.4
20260903062947 85 0 1.0 4.0 0.00 0.00 0.00 82 1013.4
20260903062447 85 0 1.0 5.0 0.00 0.00 0.00 82 1013.5
20260903061946 85 0 1.0 5.0 0.00 0.00 0.00 82 1013.6
20260903061446 85 0 1.0 4.0 0.00 0.00 0.00 82 1013.5
20260903060947 85 0 1.0 4.0 0.00 0.00 0.00 81 1013.5